Weather History for Sharm El Sheikh, Egypt

Change the Weather History Date:

Friday, November 1, 2013

  Actual Average Record
Temperature  
Mean Temperature 79 °F -  
Max Temperature 87 °F 81 °F - ()
Min Temperature 71 °F 65 °F - ()
Cooling Degree Days 14    
Growing Degree Days 29 (Base 50)    
Moisture  
Dew Point 51 °F    
Average Humidity 40    
Maximum Humidity 53    
Minimum Humidity 27    
Precipitation  
Precipitation 0.00 in 0.00 in - ()
Sea Level Pressure  
Sea Level Pressure 29.90 in    
Wind  
Wind Speed 7 mph ()    
Max Wind Speed 14 mph    
Max Gust Speed -    
Visibility 4.0 miles    
Events      
T = Trace of Precipitation, MM = Missing Value Source: Averaged Metar Reports

Daily Weather History Graph

Daily Weather History Graph

Search for Another Location

Airport:

Trip Planner

Search our weather history database for the weather conditions in past years. The results will help you decide how hot, cold, wet, or windy it might be!

Date:

Astronomy

Nov. 01, 2013 Rise Set
Actual Time 5:53 AM EET 4:58 PM EET
Civil Twilight 5:29 AM EET 5:22 PM EET
Nautical Twilight 5:01 AM EET 5:50 PM EET
Astronomical Twilight 4:34 AM EET 6:17 PM EET
Moon 3:34 AM EET (11/1) 3:30 PM EET (11/1)
Length of Visible Light 11h 52m
Length of Day
11h 04m
Waning Crescent, 6% of the Moon is Illuminated
Nov 1
Waning Crescent
Nov 3
New
Nov 10
First Quarter
Nov 17
Full
Nov 25
Last Quarter

Hourly Weather History & Observations

Time (EET) Temp. Heat Index Dew Point Humidity Pressure Visibility Wind Dir Wind Speed Gust Speed Precip Events Conditions
12:00 AM 73.4 °F - 50.0 °F 44% 29.89 in - North 5.8 mph - N/A   Clear
1:00 AM 73.4 °F - 53.6 °F 50% 29.89 in - NNW 4.6 mph - N/A   Clear
2:00 AM 73.4 °F - 53.6 °F 50% 29.92 in 3.7 mi NNW 4.6 mph - N/A   Unknown
3:00 AM 71.6 °F - 51.8 °F 50% 29.89 in 3.1 mi NW 5.8 mph - N/A   Haze
4:00 AM 71.6 °F - 50.0 °F 46% 29.89 in 3.1 mi WNW 3.5 mph - N/A   Haze
5:00 AM 71.6 °F - 48.2 °F 43% 29.89 in 2.5 mi NNW 3.5 mph - N/A   Haze
6:00 AM 71.6 °F - 51.8 °F 50% 29.86 in 2.5 mi North 8.1 mph - N/A   Haze
7:00 AM 73.4 °F - 55.4 °F 53% 29.92 in 2.5 mi North 4.6 mph - N/A   Haze
8:00 AM 78.8 °F - 57.2 °F 47% 29.92 in 2.5 mi North 10.4 mph - N/A   Haze
9:00 AM 82.4 °F 81.4 °F 53.6 °F 37% 29.95 in 2.5 mi NNE 12.7 mph - N/A   Haze
10:00 AM 84.2 °F - 51.8 °F 33% 29.92 in 2.5 mi NNE 13.8 mph - N/A   Sand
11:00 AM 86.0 °F - 51.8 °F 31% 29.92 in 2.5 mi NNE 11.5 mph - N/A   Sand
12:00 PM 86.0 °F 84.2 °F 53.6 °F 33% 29.92 in 2.5 mi NNE 12.7 mph - N/A   Sand
1:00 PM 87.8 °F - 50.0 °F 27% 29.89 in 3.7 mi NNE 11.5 mph - N/A   Partly Cloudy
2:00 PM 86.0 °F - 50.0 °F 29% 29.86 in 3.7 mi NNE 11.5 mph - N/A   Partly Cloudy
3:00 PM 84.2 °F - 46.4 °F 27% 29.86 in 3.7 mi North 11.5 mph - N/A   Partly Cloudy
4:00 PM 84.2 °F - 46.4 °F 27% 29.86 in 6.2 mi North 5.8 mph - N/A   Partly Cloudy
5:00 PM 78.8 °F - 50.0 °F 36% 29.89 in 6.2 mi North 5.8 mph - N/A   Partly Cloudy
6:00 PM 78.8 °F - 48.2 °F 34% 29.89 in 6.2 mi North 4.6 mph - N/A   Partly Cloudy
7:00 PM 75.2 °F - 50.0 °F 41% 29.89 in 6.2 mi North 4.6 mph - N/A   Partly Cloudy
8:00 PM 73.4 °F - 50.0 °F 44% 29.92 in 6.2 mi North 8.1 mph - N/A   Partly Cloudy
9:00 PM 77.0 °F - 53.6 °F 44% 29.92 in 6.2 mi North 10.4 mph - N/A   Partly Cloudy
10:00 PM 75.2 °F - 53.6 °F 47% 29.92 in 6.2 mi North 9.2 mph - N/A   Partly Cloudy
11:00 PM 75.2 °F - 53.6 °F 47% 29.92 in - North 12.7 mph - N/A   Clear